Alice Springs, Australia

4:20 PM ACST on December 06, 2019 (GMT +0930)
Alice Springs

Weather History for YBAS - November, 2019

Change the Weather History Date:

Tuesday, November 19, 2019

  Actual Average Record
Temperature  
Mean Temperature 79 °F -  
Max Temperature 100 °F 95 °F 104 °F (2003)
Min Temperature 58 °F 67 °F 53 °F (1997)
Cooling Degree Days 14    
Growing Degree Days 29 (Base 50)    
Moisture  
Dew Point 17 °F    
Average Humidity 8    
Maximum Humidity 19    
Minimum Humidity 4    
Precipitation  
Precipitation 0.00 in 0.04 in - ()
Sea Level Pressure  
Sea Level Pressure 29.89 in    
Wind  
Wind Speed 4 mph ()    
Max Wind Speed 13 mph    
Max Gust Speed -    
Visibility 6.2 miles    
Events      
Averages and records for this station are not official NWS values.
T = Trace of Precipitation, MM = Missing Value Source: Averaged Metar Reports

Daily Weather History Graph

Daily Weather History Graph

Search for Another Location

Airport or City:

Astronomy

Nov. 19, 2019 Rise Set
Actual Time 5:40 AM ACST 6:59 PM ACST
Civil Twilight 5:15 AM ACST 7:23 PM ACST
Nautical Twilight 4:46 AM ACST 7:53 PM ACST
Astronomical Twilight 4:16 AM ACST 8:23 PM ACST
Moon No Moon Rise 11:24 AM ACST (11/19)
Length of Visible Light 14h 08m
Length of Day
13h 19m
Waning Gibbous, 59% of the Moon is Illuminated
Nov 19
Waning Gibbous
Nov 20
Last Quarter
Nov 27
New
Dec 4
First Quarter
Dec 12
Full

Hourly Weather History & Observations

Time (ACST) Temp. Dew Point Humidity Pressure Visibility Wind Dir Wind Speed Gust Speed Precip Events Conditions
12:00 AM 69 °F 16 °F 6% 29.90 in - Calm Calm - -   Clear
12:30 AM 67 °F 15 °F 6% 29.89 in - Calm Calm - -  
12:30 AM 68.0 °F 14.0 °F 12% 29.98 in 6.2 mi Calm Calm - N/A   Unknown
1:30 AM 66.2 °F 15.8 °F 14% 29.95 in 6.2 mi Calm Calm - N/A   Unknown
2:00 AM 66.2 °F 15.8 °F 14% 29.95 in 6.2 mi Calm Calm - N/A   Unknown
2:30 AM 63 °F 15 °F 7% 29.86 in - Calm Calm - -  
2:30 AM 62.6 °F 14.0 °F 15% 29.95 in 6.2 mi Calm Calm - N/A   Unknown
3:00 AM 64 °F 17 °F 8% 29.86 in - Calm Calm - -   Clear
3:00 AM 64.4 °F 17.6 °F 16% 29.95 in 6.2 mi Calm Calm - N/A   Unknown
3:30 AM 63 °F 16 °F 8% 29.86 in - Calm Calm - -  
3:30 AM 62.6 °F 15.8 °F 16% 29.95 in 6.2 mi Calm Calm - N/A   Unknown
4:30 AM 60.8 °F 15.8 °F 17% 29.95 in 6.2 mi Calm Calm - N/A   Unknown
5:00 AM 60.8 °F 15.8 °F 17% 29.98 in 6.2 mi WNW 3.5 mph - N/A   Unknown
5:30 AM 60 °F 16 °F 9% 29.88 in - West 4.6 mph - -  
5:30 AM 59.0 °F 15.8 °F 19% 29.98 in 6.2 mi West 4.6 mph - N/A   Unknown
6:00 AM 59 °F 17 °F 10% 29.89 in - West 4.6 mph - -   Clear
6:30 AM 64 °F 17 °F 8% 29.90 in - NW 5.8 mph - -  
6:30 AM 64.4 °F 17.6 °F 16% 29.98 in 6.2 mi NW 5.8 mph - N/A   Unknown
7:30 AM 77.0 °F 19.4 °F 12% 30.01 in 6.2 mi Calm Calm - N/A   Unknown
8:30 AM 84 °F 17 °F 4% 29.91 in - East 5.8 mph - -  
8:30 AM 84.2 °F 15.8 °F 8% 30.01 in 6.2 mi East 5.8 mph - N/A   Unknown
9:00 AM 87 °F 19 °F 4% 29.91 in - East 8.1 mph - -   Clear
9:00 AM 87.8 °F 19.4 °F 8% 30.01 in - East 8.1 mph - N/A   Clear
9:30 AM 90 °F 17 °F 4% 29.91 in - ENE 9.2 mph - -  
9:30 AM 89.6 °F 17.6 °F 7% 30.01 in - ENE 9.2 mph - N/A   Clear
10:00 AM 91.4 °F 17.6 °F 7% 29.98 in - NE 8.1 mph - N/A   Clear
10:30 AM 93.2 °F 19.4 °F 7% 29.98 in - East 6.9 mph - N/A   Clear
11:00 AM 93.2 °F 17.6 °F 6% 29.95 in - North 6.9 mph - N/A   Clear
11:30 AM 95.0 °F 17.6 °F 6% 29.95 in 6.2 mi SSW 5.8 mph - N/A   Unknown
12:00 PM 95 °F 18 °F 4% 29.84 in - South 8.1 mph - -   Clear
12:00 PM 95.0 °F 17.6 °F 6% 29.92 in - South 8.1 mph - N/A   Clear
12:30 PM 97 °F 19 °F 4% 29.83 in - SSE 6.9 mph - -  
12:30 PM 96.8 °F 19.4 °F 6% 29.92 in 6.2 mi SSE 6.9 mph - N/A   Unknown
1:30 PM 98.6 °F 19.4 °F 6% 29.89 in 6.2 mi East 4.6 mph - N/A   Unknown
2:00 PM 98.6 °F 21.2 °F 6% 29.86 in 6.2 mi SW 10.4 mph - N/A   Unknown
2:30 PM 98 °F 20 °F 4% 29.76 in - ESE 5.8 mph - -  
2:30 PM 98.6 °F 19.4 °F 6% 29.86 in 6.2 mi ESE 5.8 mph - N/A   Unknown
3:00 PM 100 °F 17 °F 4% 29.75 in - North 6.9 mph - -   Clear
3:30 PM 100 °F 17 °F 4% 29.74 in - South 12.7 mph - -  
3:30 PM 100.4 °F 17.6 °F 5% 29.83 in 6.2 mi South 12.7 mph - N/A   Unknown
4:00 PM 100.4 °F 17.6 °F 5% 29.83 in 6.2 mi WSW 6.9 mph - N/A   Unknown
4:30 PM 100.4 °F 17.6 °F 5% 29.83 in 6.2 mi South 8.1 mph - N/A   Unknown
5:00 PM 100.4 °F 17.6 °F 5% 29.83 in 6.2 mi SE 5.8 mph - N/A   Unknown
5:30 PM 100.4 °F 15.8 °F 5% 29.83 in 6.2 mi South 9.2 mph - N/A   Unknown
6:00 PM 99 °F 16 °F 4% 29.74 in - ENE 5.8 mph - -   Clear
6:30 PM 98 °F 20 °F 4% 29.74 in - ESE 9.2 mph - -  
6:30 PM 98.6 °F 19.4 °F 6% 29.83 in 6.2 mi ESE 9.2 mph - N/A   Unknown
7:00 PM 95.0 °F 17.6 °F 6% 29.83 in 6.2 mi SE 8.1 mph - N/A   Unknown
7:30 PM 91.4 °F 15.8 °F 6% 29.86 in 6.2 mi SE 8.1 mph - N/A   Unknown
8:30 PM 88 °F 17 °F 4% 29.78 in - East 10.4 mph - -  
8:30 PM 87.8 °F 15.8 °F 7% 29.86 in 6.2 mi East 10.4 mph - N/A   Unknown
9:00 PM 85 °F 15 °F 4% 29.79 in - ESE 9.2 mph - -   Clear
9:00 PM 86.0 °F 14.0 °F 7% 29.89 in 6.2 mi ESE 9.2 mph - N/A   Unknown
9:30 PM 82.4 °F 15.8 °F 8% 29.89 in 6.2 mi ESE 8.1 mph - N/A   Unknown
10:30 PM 78.8 °F 12.2 °F 8% 29.89 in 6.2 mi East 5.8 mph - N/A   Unknown
11:30 PM 75.2 °F 15.8 °F 11% 29.89 in 6.2 mi East 5.8 mph - N/A   Unknown